Location: Étouvelles
(49.5207°N, 3.5808°E)
Time: 23:39:29
(UTC+00:00)

Cosmos 2333 Rocket - Pass Details

Date: 03 February 2023
Orbit: 838 x 864 km, 70.8° (Epoch: 21 March)

Event Time Altitude Azimuth Distance (km) Brightness Sun altitude
Rises 18:11:50 0° 179° (S) 3,378 5.4 -14.4°
Reaches altitude 10° 18:14:26 10° 171° (S) 2,450 4.6 -14.8°
Maximum altitude 18:19:29 36° 107° (ESE) 1,321 2.7 -15.6°
Enters shadow 18:22:25 22° 57° (ENE) 1,788 3.4 -16.1°
